Погода в Тавлах

Россия / Томская область     56°35′27″N   86°55′19″E
темп.,
°C
ветер,
м/с
пор.,
м/с
влажн.,
%
обл.,
%
осадки,
мм/ч
давл.,
гПа
погр.,
м
26 июля, пн
пн2601:00+19ююз2394100 0.3 100462
04:00+18ююз3494100 0.1 100371
07:00+19ююз2291100 0.9 100326
10:00+21ююв2591100 0.1 1002201
13:00+23юв458397 2.4 1001494
16:00+22вюв368869 1.5 1001285
19:00+24ююв247983 3.1 999280
22:00+19юз339079 1.3 99946
27 июля, вт
вт2701:00+18зюз51097100 1.3 999304
04:00+17з5996100 0.1 1001508
07:00+13з5895100 0.1 1003550
10:00+13зюз5887100 0.1 1005765
13:00+14зюз6769100 0.1 10061115
16:00+13зюз5777100 0.0 10071080
19:00+13зюз478199 0.0 1008856
22:00+13з487987 0.0 1008471
28 июля, ср
ср2801:00+12зюз2581100 0.0 1009163
04:00+12зюз367791 0.0 1009162
07:00+13зюз238244 0.0 1010131
10:00+17зюз126761 0.3 1010522
13:00+20з234884 0.4 10092032
16:00+19з335276 0.1 10101298
19:00+19зюз126198 0.1 10101032
22:00+15зюз126597 0.0 101014
29 июля, чт
чт2901:00+14ююз2269100 0.0 101019
04:00+13зюз227496 0.0 101020
07:00+13юз2373100 0.0 101185
10:00+15ююз246985 0.0 1011270
13:00+20юз45505 0.0 10101682
16:00+20зюз245289 0.0 10101563
19:00+19ю2263100 0.0 1010123
22:00+16ююз1168100 0.0 101012
30 июля, пт
пт3001:00+15ююз226799 0.0 101035
04:00+13сз2290100 0.2 101048
07:00+13юз239393 0.5 101197
10:00+14зюз1291100 0.3 1012135
13:00+19зюз34710 0.9 1012989
16:00+22зюз354413 0.5 10112266
19:00+20з355912 0.5 1012396
22:00+14ююз227041 0.0 101317